Provo, UT

1:14 PM MST on December 05, 2019 (GMT -0700)
Provo Municipal

Weather History for KPVU - October, 2019

Change the Weather History Date:

Tuesday, October 8, 2019

  Actual Average Record
Temperature  
Mean Temperature 57 °F -  
Max Temperature 78 °F 66 °F 82 °F (2003)
Min Temperature 36 °F 38 °F 32 °F (1982)
Degree Days  
Heating Degree Days 8    
Growing Degree Days 7 (Base 50)    
Moisture  
Dew Point 28 °F    
Average Humidity 39    
Maximum Humidity 73    
Minimum Humidity 14    
Precipitation  
Precipitation 0.00 in - - ()
Sea Level Pressure  
Sea Level Pressure 29.87 in    
Wind  
Wind Speed 3 mph (South)    
Max Wind Speed 8 mph    
Max Gust Speed -    
Visibility 10 miles    
Events      
Averages and records for this station are not official NWS values.
T = Trace of Precipitation, MM = Missing Value Source: NWS Daily Summary

Daily Weather History Graph

Daily Weather History Graph

Search for Another Location

Airport or City:

Astronomy

Oct. 08, 2019 Rise Set
Actual Time 7:30 AM MDT 6:58 PM MDT
Civil Twilight 7:02 AM MDT 7:25 PM MDT
Nautical Twilight 6:31 AM MDT 7:56 PM MDT
Astronomical Twilight 5:59 AM MDT 8:28 PM MDT
Moon 4:59 PM MDT (10/8) 2:22 AM MDT (10/8)
Length of Visible Light 12h 22m
Length of Day
11h 27m
Waxing Gibbous, 78% of the Moon is Illuminated
Oct 8
Waxing Gibbous
Oct 13
Full
Oct 21
Last Quarter
Oct 27
New
Nov 4
First Quarter

Hourly Weather History & Observations

Time (MDT) Temp. Windchill Dew Point Humidity Pressure Visibility Wind Dir Wind Speed Gust Speed Precip Events Conditions
12:56 AM 41.0 °F 39.0 °F 28.9 °F 62% 30.05 in 10.0 mi ESE 3.5 mph - N/A   Clear
1:56 AM 43.0 °F - 25.0 °F 49% 30.03 in 10.0 mi Calm Calm - N/A   Clear
2:56 AM 43.0 °F 40.3 °F 28.0 °F 56% 30.02 in 10.0 mi SSW 4.6 mph - N/A   Clear
3:56 AM 39.0 °F - 27.0 °F 62% 30.00 in 10.0 mi Calm Calm - N/A   Clear
4:56 AM 43.0 °F 41.3 °F 26.1 °F 51% 29.97 in 10.0 mi SSW 3.5 mph - N/A   Clear
5:56 AM 36.0 °F - 28.0 °F 73% 30.00 in 10.0 mi Calm Calm - N/A   Clear
6:56 AM 39.0 °F - 26.1 °F 60% 29.99 in 10.0 mi Calm Calm - N/A   Clear
7:56 AM 41.0 °F 36.4 °F 24.1 °F 51% 29.99 in 10.0 mi SSW 6.9 mph - N/A   Clear
8:56 AM 46.0 °F - 25.0 °F 44% 30.00 in 10.0 mi Calm Calm - N/A   Partly Cloudy
9:56 AM 52.0 °F - 21.9 °F 31% 29.99 in 10.0 mi ESE 3.5 mph - N/A   Partly Cloudy
10:56 AM 57.0 °F - 24.1 °F 28% 29.96 in 10.0 mi Calm Calm - N/A   Partly Cloudy
11:56 AM 62.1 °F - 32.0 °F 32% 29.93 in 10.0 mi WSW 5.8 mph - N/A   Clear
12:56 PM 63.0 °F - 34.0 °F 34% 29.90 in 10.0 mi West 5.8 mph - N/A   Scattered Clouds
1:56 PM 71.1 °F - 28.0 °F 20% 29.84 in 10.0 mi Calm Calm - N/A   Scattered Clouds
2:56 PM 75.9 °F - 24.1 °F 15% 29.79 in 10.0 mi Variable 5.8 mph - N/A   Clear
2:57 PM 75.9 °F - 24.1 °F 15% 29.79 in 10.0 mi Variable 5.8 mph - N/A   Mostly Cloudy
3:56 PM 75.9 °F - 23.0 °F 14% 29.78 in 10.0 mi Calm Calm - N/A   Clear
4:56 PM 78.1 °F - 25.0 °F 14% 29.74 in 10.0 mi SSE 8.1 mph - N/A   Mostly Cloudy
5:56 PM 75.9 °F - 25.0 °F 15% 29.75 in 10.0 mi SSE 5.8 mph - N/A   Clear
6:56 PM 68.0 °F - 30.9 °F 25% 29.75 in 10.0 mi South 5.8 mph - N/A   Mostly Cloudy
7:56 PM 57.9 °F - 36.0 °F 44% 29.76 in 10.0 mi East 5.8 mph - N/A   Mostly Cloudy
8:56 PM 55.9 °F - 34.0 °F 44% 29.74 in 10.0 mi SSE 4.6 mph - N/A   Clear
9:56 PM 55.9 °F - 35.1 °F 45% 29.71 in 10.0 mi SSW 3.5 mph - N/A   Clear
10:56 PM 50.0 °F - 34.0 °F 54% 29.71 in 10.0 mi Calm Calm - N/A   Clear
11:56 PM 55.0 °F - 28.9 °F 37% 29.68 in 10.0 mi Variable 4.6 mph - N/A   Clear